Notices

What's New in latest Release from April 7th, 2021:

- Updated Glossary, including Speed of Maximum Gust, and Total Hourly Precipitation

- Updated national and regional climate services offices contacts and prices information

- Addition of station inventory lists for 1981-2010, 1971-2000, and 1961-1990 Normals.

If you haven't already, please take our survey and provide feedback about our website: https://eccc.sondage-survey.ca/f/LanguageSelection.aspx?s=442ca660-fcf1-47c0-95a9-59707d6fd709

Hourly Data Report for April 04, 2018

KENORA A
ONTARIO
Current Station Operator: NAVCAN

49°47'18.000" N
94°21'47.000" W
409.70 m
6034076
71850
YQK

Download Data

Hourly Data (April 2018)
Hourly Data Report for April 4, 2018
TIME
LST
Temp Definition
°C
Dew Point Definition
°C
Rel Hum Definition
%
Precip. Amount Definition
mm

Wind Dir Definition
10's deg

Wind Spd Definition
km/h
Visibility Definition
km
Stn Press Definition
kPa
Hmdx Definition


Wind Chill Definition


Weather Definition


00:00 -11.1 -19.1 52   33 3 24.1 96.90   -13 Clear
01:00 -13.1 -18.5 64   24 8 24.1 96.91   -18 LegendNANA
02:00 -12.5 -18.4 62   22 3 24.1 96.90   -14 LegendNANA
03:00 -12.9 -18.6 63   23 6 24.1 96.89   -17 Mainly Clear
04:00 -13.9 -18.8 67   23 8 24.1 96.86   -19 LegendNANA
05:00 -13.7 -18.7 67   22 8 24.1 96.83   -19 LegendNANA
06:00 -13.9 -18.4 69   21 7 24.1 96.82   -19 Mainly Clear
07:00 -13.1 -17.6 69   20 8 24.1 96.80   -18 LegendNANA
08:00 -10.8 -16.4 64   23 13 24.1 96.81   -17 LegendNANA
09:00 -9.1 -15.2 62   22 8 24.1 96.81   -13 Mostly Cloudy
10:00 -6.6 -13.9 56   24 8 24.1 96.79   -10 LegendNANA
11:00 -4.9 -12.6 55   18 11 24.1 96.77   -9 LegendNANA
12:00 -4.9 -13.0 54   29 15 24.1 96.74   -10 Cloudy
13:00 -4.2 -9.6 66   20 18 9.7 96.70   -10 Snow Showers
14:00 -4.4 -7.9 76   23 15 2.4 96.66   -10 Snow Showers
15:00 -4.4 -6.5 85   24 18 1.6 96.62   -10 Snow Showers
16:00 -3.5 -8.3 70   25 17 9.7 96.59   -9 Snow Showers
17:00 -3.8 -9.3 66   28 14 9.7 96.60   -9 Snow Showers
18:00 -3.8 -11.0 58   29 21 16.1 96.60   -10 Snow Showers
19:00 -4.3 -13.9 48   30 10 19.3 96.61   -8 LegendNANA
20:00 -5.5 -15.6 45   30 8 24.1 96.67   -9 LegendNANA
21:00 -6.5 -15.5 49   28 8 24.1 96.70   -10 Mainly Clear
22:00 -7.1 -15.7 51   28 11 24.1 96.70   -12 LegendNANA
23:00 -7.9 -16.2 52   29 9 24.1 96.73   -12 LegendNANA

Notes on Data Quality.

Legend

  • E = Estimated
  • M = Missing
  • NA = Not Available*
  • [empty] = Indicates an unobserved value
Date modified: